Theta_e
303 303 303 303 303 302 300 297 297 297 297 297 297 297 298 298 299 300 302 303 302 303 303 303 304 304 305 304 306 306 308 311 312 314 313 313 314 313 314 314 314 316 317 319 316 317 318 311 310 316 315 318 318 319
303 303 303 302 302 299 297 295 295 296 296 296 296 297 297 297 299 299 301 302 302 303 304 302 302 302 303 303 305 304 308 308 310 312 313 314 315 313 314 320 310 317 311 314 313 315 310 308 305 307 311 315 315 316
303 303 302 301 299 296 294 295 295 295 295 295 296 296 296 297 297 298 300 301 302 303 304 305 308 306 305 305 305 306 307 309 309 308 308 311 314 313 318 317 314 313 310 311 311 313 309 309 313 310 307 311 311 310
303 302 302 299 295 294 295 294 294 295 295 296 296 297 297 297 297 297 299 300 301 302 304 307 305 306 306 305 305 305 306 308 308 307 309 310 313 312 315 315 316 315 315 314 314 314 312 312 312 313 313 311 313 318
303 302 300 294 292 294 294 294 294 295 295 296 297 298 298 298 297 298 300 300 299 302 304 306 304 307 307 307 306 305 306 306 306 308 310 311 313 313 315 316 316 314 314 316 315 315 312 313 311 311 313 313 313 314
302 300 293 291 293 294 293 294 294 294 295 297 297 296 297 297 297 299 302 302 301 300 302 306 307 308 308 309 309 307 305 305 305 310 311 311 312 312 316 317 314 313 313 312 314 312 312 310 308 307 309 311 311 312
301 294 290 292 293 293 293 293 294 294 296 296 295 294 294 296 298 301 306 303 302 300 303 306 308 310 307 310 310 308 306 307 307 311 313 314 313 311 316 316 313 312 312 311 311 311 311 310 307 307 308 309 310 310
296 291 292 293 293 293 293 293 294 295 295 293 292 292 302 302 299 300 301 301 301 301 302 307 309 311 309 314 315 310 311 309 310 312 315 315 314 315 317 314 312 311 311 310 309 311 310 309 306 306 308 310 310 309
291 291 292 293 292 293 293 293 295 295 293 292 291 302 303 304 303 304 301 303 302 302 306 308 310 313 309 311 314 312 311 314 312 314 314 313 316 317 315 313 312 311 312 311 309 308 308 308 306 306 308 309 311 308
291 291 292 292 292 292 293 294 295 294 293 293 295 302 307 305 299 300 303 304 302 303 304 308 309 311 310 311 312 315 315 316 317 315 313 316 318 316 313 312 312 311 311 311 311 309 309 308 305 305 306 307 308 306
291 291 292 292 292 292 293 294 294 293 295 296 296 298 298 296 303 307 308 308 305 307 306 308 309 310 309 312 313 311 316 315 316 316 316 317 318 316 314 312 312 312 312 311 310 308 308 306 305 305 305 306 305 305
290 291 291 292 292 293 294 293 294 294 295 295 295 295 296 300 304 306 308 308 309 309 309 310 309 307 308 309 312 315 316 315 315 312 315 316 315 315 312 312 312 312 312 311 309 308 307 305 303 304 305 305 305 305
291 291 291 292 293 293 293 293 293 294 294 296 296 297 301 304 305 304 305 307 310 311 307 308 312 312 308 308 312 314 316 316 313 314 314 314 316 314 313 312 313 312 312 311 310 308 306 304 303 303 304 303 302 303
291 291 292 292 293 293 293 293 293 294 295 297 299 303 303 303 303 305 307 309 309 307 308 306 307 310 310 305 307 313 315 313 316 316 313 312 314 315 313 312 313 312 312 311 310 309 306 304 303 303 303 302 301 301
291 291 292 293 291 292 293 293 293 295 296 296 297 300 302 303 303 305 301 304 304 304 303 303 305 308 312 310 310 314 316 318 316 316 315 313 314 315 314 313 313 313 312 311 310 310 308 304 303 303 302 302 301 301
290 291 293 290 291 293 293 293 294 294 296 296 297 298 298 299 300 300 302 303 301 302 302 303 305 309 313 314 314 316 316 318 318 316 313 312 315 316 315 314 313 313 313 312 311 309 308 306 304 303 302 302 301 300
291 293 291 290 292 293 293 294 294 294 296 297 298 298 299 300 299 299 300 300 300 301 302 304 307 310 313 313 315 315 316 316 315 314 314 314 314 316 315 314 313 313 313 311 311 310 309 306 304 303 304 302 301 300
293 292 292 293 293 294 294 294 295 295 296 297 297 297 297 297 297 298 298 299 300 300 301 304 305 308 309 310 312 314 314 312 312 312 312 313 314 315 315 314 312 311 312 312 311 310 309 308 307 305 303 302 302 301
292 292 292 291 292 294 294 295 296 297 296 296 297 297 297 297 297 297 298 298 299 300 300 302 304 304 305 309 309 310 310 310 311 311 312 313 314 313 314 314 313 313 312 312 312 311 310 310 308 305 304 303 302 302
291 291 291 291 291 294 294 295 295 296 296 296 296 296 296 297 297 297 298 298 299 299 299 300 301 305 306 306 306 307 308 308 309 310 310 311 312 313 313 313 314 313 312 312 312 311 311 310 308 306 305 304 303 302
292 292 292 292 293 293 294 294 295 295 296 296 296 296 296 297 297 299 299 298 300 300 300 302 303 303 304 304 304 305 305 307 307 310 310 311 311 311 313 313 314 313 313 312 312 311 310 310 309 307 304 305 302 301
293 291 293 292 293 294 295 294 295 295 295 296 297 296 297 298 298 300 300 300 301 297 298 299 299 300 302 303 303 303 303 304 304 306 308 308 311 312 312 312 313 314 313 313 312 311 310 310 309 307 306 304 302 300
292 292 293 293 293 293 294 294 295 295 296 296 297 296 297 297 298 298 298 296 297 295 294 295 295 296 298 300 301 301 301 302 303 303 304 305 307 309 311 311 311 312 314 313 312 311 311 310 308 307 305 303 301 299
291 293 293 294 294 294 295 296 296 296 296 296 296 296 297 297 298 299 297 296 296 294 294 294 294 296 296 297 297 297 297 297 297 298 302 303 306 307 308 310 312 312 312 313 312 311 311 309 307 306 305 304 302 300
292 292 293 291 294 294 294 295 295 295 295 296 296 297 298 298 300 298 296 295 294 295 293 293 293 295 296 295 295 294 293 292 293 295 297 300 303 304 307 310 312 312 312 313 312 311 310 308 307 306 305 304 303 302
292 292 294 295 296 296 296 295 295 295 295 295 296 297 298 300 298 297 296 294 293 293 292 292 292 293 294 292 293 292 291 290 290 293 296 300 301 303 304 306 311 313 312 312 312 310 309 308 307 306 305 304 302 301
293 294 295 294 296 296 295 296 295 295 295 295 297 297 298 297 296 295 293 292 291 291 291 291 291 291 292 292 291 291 290 290 290 291 295 297 299 298 299 302 304 306 308 311 311 310 310 309 307 306 305 304 302 301
295 295 296 296 296 295 295 295 295 295 295 295 297 298 296 295 294 292 292 290 289 290 290 290 290 290 291 291 291 291 290 289 290 292 293 293 292 295 292 295 299 301 305 308 311 311 310 309 308 307 306 304 302 301
295 295 295 294 294 294 295 296 296 296 295 295 296 296 293 291 289 289 289 289 289 289 289 290 290 289 290 290 291 291 290 288 288 291 291 290 289 290 289 291 294 298 301 307 308 309 309 308 307 305 303 302 302 301
295 296 297 296 296 297 298 298 298 297 296 296 295 293 291 289 288 288 289 289 289 289 289 289 289 288 288 288 288 289 289 288 287 286 287 288 287 287 288 290 291 293 298 302 307 305 306 304 304 303 301 300 299 299
297 297 297 297 298 298 298 298 298 296 296 296 295 294 293 290 288 287 287 288 288 288 287 287 288 287 286 286 286 287 287 286 286 286 284 285 286 286 287 288 289 292 295 299 304 303 303 302 301 299 298 298 296 296
297 297 297 296 297 298 297 297 297 296 296 296 294 293 293 292 291 287 285 286 286 286 285 285 286 286 285 285 285 285 284 285 285 284 284 285 285 285 287 288 288 290 291 294 295 298 300 299 297 298 298 297 296 296
296 296 296 296 297 297 298 296 296 296 295 294 293 293 292 291 289 287 285 285 284 284 284 285 285 285 284 284 284 284 284 284 283 283 284 284 284 285 286 287 287 287 287 287 288 288 288 290 289 290 291 291 292 291
Wind_Speed
16 18 20 19 22 22 24 20 18 18 18 17 16 16 15 13 13 11 14 12 7 4 12 20 21 13 7 5 3 7 9 2 5 6 3 4 4 4 4 9 6 3 4 2 6 6 5 7 9 10 9 7 9 11
16 18 19 21 22 22 19 19 19 18 18 18 17 17 15 14 12 11 11 10 12 9 8 30 32 33 34 29 9 3 6 9 3 2 1 5 4 4 9 5 2 2 2 3 3 3 8 14 19 25 23 18 16 13
15 18 19 21 21 18 18 18 19 19 19 18 18 18 17 15 12 10 15 13 8 4 12 9 5 2 9 17 21 5 6 4 2 2 1 3 5 2 3 4 3 3 5 3 4 5 12 13 12 6 14 18 14 15
17 17 19 21 18 17 17 18 19 20 20 20 19 18 17 16 14 12 13 12 7 5 4 4 4 12 12 13 18 29 17 1 3 1 3 3 3 3 4 8 5 4 8 10 7 9 11 11 17 16 4 3 5 9
16 18 19 18 17 16 18 19 21 21 21 20 21 21 20 19 17 15 17 18 18 7 4 7 26 7 3 8 16 20 21 12 3 3 3 3 4 3 5 6 3 5 6 7 8 13 7 9 14 18 14 13 11 10
16 17 16 17 15 16 18 20 21 22 22 24 24 25 26 22 13 8 3 3 15 18 3 4 7 6 5 7 10 12 11 7 3 3 2 3 3 2 3 3 8 10 11 12 9 10 11 14 14 15 14 12 12 10
16 15 16 14 15 17 19 21 23 23 26 28 31 30 21 13 10 7 3 3 4 17 2 4 4 3 4 5 3 4 9 4 4 2 3 3 3 3 3 3 8 8 10 11 12 12 10 14 11 13 13 10 9 9
14 14 13 13 15 17 19 22 24 24 29 33 30 18 8 3 9 9 10 13 8 4 3 3 4 4 5 3 3 4 3 3 4 3 3 3 2 4 3 4 4 6 7 9 10 7 9 10 13 11 6 6 9 11
12 11 11 13 15 17 20 22 22 27 32 30 17 3 5 4 4 2 8 9 19 5 2 3 2 4 2 4 1 3 2 3 2 3 3 1 4 4 2 4 3 6 7 8 9 12 10 13 14 12 12 11 11 12
10 10 12 14 16 17 19 20 23 28 29 16 6 5 2 1 8 8 5 3 3 3 3 4 5 7 8 4 3 2 4 2 3 4 3 4 4 2 2 4 4 4 6 9 11 12 12 15 14 14 15 12 12 11
9 10 12 14 16 17 18 18 21 26 12 9 6 3 11 14 4 4 3 5 4 3 4 4 7 6 2 5 3 2 3 1 3 3 2 2 2 2 8 5 4 3 6 6 10 9 10 10 11 12 13 14 12 13
8 10 12 13 16 19 18 14 19 17 12 13 17 17 7 3 4 5 4 3 5 3 3 3 1 3 3 4 3 3 3 2 2 1 3 2 2 6 8 6 7 6 5 7 9 11 9 9 11 12 13 13 14 14
8 10 11 13 11 13 13 16 17 18 20 3 2 3 3 1 3 4 3 3 3 2 4 2 2 2 2 2 3 3 3 2 2 2 2 2 3 6 8 6 8 6 7 7 9 10 11 13 14 13 12 16 15 15
9 11 12 13 11 14 17 18 18 17 5 3 3 4 3 1 3 3 7 7 4 3 6 4 4 2 1 1 1 3 3 1 2 3 1 4 1 7 8 7 8 7 7 7 7 8 9 11 13 14 16 15 14 15
9 12 13 5 8 17 19 20 18 8 3 3 3 4 3 4 7 6 6 5 6 6 6 7 6 5 4 3 3 2 3 3 2 1 3 4 5 3 8 8 9 8 7 7 6 7 8 10 12 14 15 15 15 15
9 9 1 9 15 18 21 16 3 1 2 3 3 4 4 8 8 5 4 3 6 8 7 5 5 4 3 2 2 4 2 2 2 3 5 4 4 5 7 8 8 8 8 7 7 9 8 8 10 11 13 15 16 16
6 3 8 14 18 16 10 3 2 1 3 3 2 4 5 7 9 8 9 8 7 7 5 4 5 2 1 1 2 2 2 4 4 6 7 6 5 4 6 7 7 7 9 11 10 10 11 9 8 8 9 11 14 16
3 5 12 14 12 8 3 2 2 2 3 3 5 7 8 8 9 9 8 7 6 6 4 4 6 4 3 2 1 3 6 8 9 8 7 9 4 3 6 8 10 11 9 12 13 12 12 11 9 9 11 10 11 12
6 8 9 8 7 4 3 1 2 3 3 5 6 6 8 8 8 8 8 8 7 5 4 4 5 5 4 5 8 8 8 7 6 9 8 11 8 0 4 8 11 14 12 14 15 12 10 8 8 9 9 8 10 9
4 1 4 7 2 2 2 1 1 3 3 5 7 6 9 9 7 8 8 6 5 4 5 4 5 4 5 5 6 7 8 9 10 9 9 9 14 5 2 5 7 12 12 13 13 12 12 10 10 10 8 9 11 10
1 2 5 5 1 0 2 2 2 2 5 4 7 9 7 7 8 8 3 2 3 1 2 4 7 8 12 12 10 5 8 7 7 9 10 10 13 13 8 3 6 11 13 11 9 13 14 13 12 10 11 9 11 12
1 4 1 2 0 1 2 1 4 6 3 5 7 6 7 6 6 6 10 2 4 5 5 5 7 8 10 11 13 15 13 12 13 13 14 15 8 5 7 9 7 6 10 15 16 15 17 16 17 17 15 14 14 14
0 1 1 1 1 1 2 2 3 2 3 6 7 6 4 4 5 8 4 4 3 4 9 9 14 16 11 13 13 12 13 15 10 12 13 13 15 14 11 14 11 9 7 12 16 16 18 17 21 20 19 18 17 16
3 1 1 1 1 0 2 1 1 3 3 4 4 5 5 4 4 2 2 3 5 13 10 14 16 7 11 13 6 12 17 18 16 16 17 14 9 12 13 14 13 12 14 11 15 17 19 20 22 19 20 19 19 19
2 2 2 1 2 1 1 2 1 2 3 6 4 3 4 3 2 3 4 7 9 10 9 15 13 7 7 7 9 13 19 18 13 10 17 16 14 14 14 14 11 12 11 13 16 18 21 22 23 22 22 21 21 20
3 4 5 4 3 2 0 1 1 2 4 2 1 2 2 3 3 4 5 8 8 7 8 10 9 8 7 13 9 11 22 25 20 13 15 12 11 11 8 8 9 8 10 13 15 18 21 25 27 27 24 23 23 22
4 4 4 3 1 1 2 3 2 2 2 2 2 3 2 2 3 3 5 8 6 14 18 17 17 15 11 17 21 23 25 25 21 18 16 13 12 18 15 11 9 16 15 11 17 23 26 27 28 30 28 25 26 24
3 3 5 5 3 2 2 2 3 3 2 2 2 2 1 2 2 3 4 12 15 14 15 15 17 17 17 16 18 23 28 29 26 22 17 22 22 12 25 20 17 18 15 14 15 20 24 28 29 29 29 28 30 27
4 4 4 4 3 3 4 4 3 2 1 2 1 2 2 2 2 4 6 10 10 11 13 15 19 19 18 18 20 22 26 29 28 24 20 11 12 20 34 28 23 20 20 12 12 16 21 24 28 29 34 29 26 26
5 6 4 5 3 5 4 4 2 1 2 1 3 4 4 3 3 5 6 9 10 11 13 14 15 18 19 20 21 24 23 27 26 20 11 12 16 27 27 27 27 24 22 19 9 9 19 21 24 24 25 28 26 24
6 5 3 3 3 3 2 2 2 2 2 2 3 3 4 4 5 9 11 9 8 10 13 14 15 17 18 19 20 20 19 27 28 28 29 25 26 27 28 28 25 20 17 19 1 11 19 21 23 27 30 28 30 31
5 6 5 5 3 3 3 3 3 2 4 3 3 3 4 4 3 3 10 11 10 11 11 11 13 15 17 17 17 17 16 20 24 26 26 28 29 28 27 27 26 23 19 17 19 10 7 11 14 16 20 27 27 27
4 5 4 2 3 3 3 1 2 3 2 2 2 2 2 2 3 3 5 9 11 12 12 9 9 11 12 17 18 17 18 18 21 25 28 28 32 31 25 24 27 27 27 29 28 25 25 30 29 26 22 20 22 26
Wind_Direction
319 320 322 320 319 323 325 329 331 330 326 327 327 324 323 319 318 314 283 271 242 265 280 267 271 262 257 230 254 319 310 215 302 339 333 353 307 328 291 296 315 315 313 240 222 246 256 15 323 226 265 327 333 326
315 317 315 318 320 324 326 328 327 328 329 329 326 323 322 318 312 311 279 283 269 248 271 286 278 268 263 257 258 231 293 317 280 301 305 305 307 302 314 305 122 0 266 302 272 341 266 277 262 252 266 286 290 300
312 312 315 317 321 324 327 327 328 326 327 327 323 319 316 312 307 289 284 293 265 263 283 259 248 258 237 237 228 219 230 247 260 59 276 284 272 278 291 289 261 243 216 238 281 239 262 292 328 3 213 248 281 282
309 310 313 317 321 325 324 327 325 323 324 322 326 324 321 315 304 289 272 263 283 298 282 288 289 278 275 245 218 214 245 233 340 235 245 254 268 213 278 292 313 260 303 328 297 335 336 346 5 5 47 241 294 285
304 307 314 319 322 323 324 326 323 324 321 324 321 316 310 306 299 290 273 257 237 238 293 299 305 266 228 221 222 224 225 245 273 268 231 249 252 307 269 279 341 344 334 344 321 23 348 10 354 7 19 16 13 1
302 310 316 320 324 323 328 325 324 322 320 318 315 312 307 300 286 281 279 202 222 211 266 288 327 274 231 240 231 214 214 217 218 253 247 244 230 222 282 302 10 8 359 4 1 17 360 19 18 358 1 11 14 23
303 311 318 322 325 327 327 326 322 320 318 318 318 316 307 288 218 209 328 84 151 180 245 277 275 183 236 235 188 189 186 203 213 235 229 244 264 183 267 316 6 1 7 19 22 17 3 26 16 4 356 353 27 45
302 313 319 323 324 328 329 327 324 322 322 324 323 320 314 229 192 242 260 233 196 207 237 265 276 259 175 210 212 193 195 199 208 259 251 266 314 226 264 58 24 1 348 21 27 58 33 2 24 20 2 37 32 42
303 310 318 320 326 328 329 329 328 326 327 326 328 320 185 224 199 203 301 286 205 209 261 235 260 306 165 258 227 192 211 226 168 236 242 189 238 235 28 93 55 20 31 358 33 43 24 23 14 12 37 34 45 41
300 312 316 322 325 328 330 333 332 328 335 342 343 241 211 120 291 302 208 188 152 208 231 249 241 246 311 293 277 232 196 236 238 201 192 226 263 256 170 107 71 41 27 9 32 31 25 19 7 19 27 43 51 51
299 311 317 321 323 324 325 325 331 342 348 352 338 306 323 313 263 207 248 195 171 231 211 226 224 238 243 246 278 280 289 235 271 103 271 229 255 140 157 154 113 97 64 39 59 57 49 34 16 17 30 40 50 51
298 311 317 322 324 321 316 322 329 340 326 303 289 300 289 285 242 238 228 209 213 263 190 266 204 207 250 273 245 236 261 228 274 44 261 263 75 134 157 144 127 130 98 68 59 70 64 50 33 26 38 40 38 56
299 311 317 322 335 344 337 327 329 325 325 293 245 255 247 226 277 248 218 232 230 349 35 331 287 243 190 242 266 277 234 239 320 244 277 338 105 153 156 135 140 131 104 90 82 72 67 63 54 40 43 47 45 44
306 310 312 310 302 318 328 328 328 330 297 284 295 285 253 254 255 302 338 327 345 358 313 297 299 255 240 167 195 229 201 226 238 231 136 21 36 163 166 153 153 150 131 107 90 80 69 71 66 52 51 53 59 57
310 312 315 318 319 320 323 322 321 308 270 274 266 258 249 343 317 29 20 352 319 304 330 321 288 229 194 218 212 292 196 231 224 29 49 8 332 217 172 169 162 156 156 135 110 91 75 68 72 71 64 65 62 62
312 330 218 323 324 325 326 327 332 270 244 260 247 278 313 310 334 315 12 328 320 324 301 264 271 256 242 214 177 227 238 209 48 30 2 2 338 224 181 179 170 164 160 141 129 114 99 77 73 73 69 65 68 70
323 236 303 327 327 338 339 12 15 71 308 267 258 277 290 294 313 312 323 324 348 297 305 299 255 298 140 14 271 309 31 17 345 36 22 24 337 228 197 184 155 153 160 164 149 139 118 112 99 86 75 65 68 71
248 303 325 332 344 343 337 353 285 260 259 262 299 322 321 306 296 293 294 306 313 307 284 295 313 283 303 300 308 39 26 359 2 354 341 346 342 271 215 187 166 190 180 175 169 152 148 144 134 116 112 103 85 77
282 303 315 343 347 333 332 338 318 296 285 317 298 313 314 308 299 289 278 272 274 280 295 275 265 265 284 32 1 349 355 5 348 318 323 320 306 147 227 209 175 176 185 179 172 173 162 161 129 134 126 125 103 95
301 318 328 330 316 248 258 212 272 281 285 316 303 297 323 314 316 302 289 286 280 233 218 234 267 354 350 345 337 328 329 327 323 321 332 342 339 332 221 226 212 180 177 182 183 168 161 166 160 151 136 120 120 116
118 328 6 25 97 284 290 311 272 279 303 296 316 322 318 317 315 317 311 293 257 259 309 2 333 323 335 324 320 302 294 328 316 307 316 319 323 321 334 312 208 200 183 184 192 185 181 181 171 154 152 141 124 120
177 11 34 20 198 188 266 238 302 315 282 294 306 318 338 357 345 3 325 338 45 4 348 345 337 336 322 329 337 331 331 344 330 325 321 321 312 319 300 287 257 217 213 199 195 195 196 181 171 168 162 141 136 133
61 109 161 137 192 136 267 296 278 319 300 326 330 336 14 355 344 330 59 5 348 336 338 343 342 343 335 339 345 345 347 339 321 311 308 307 302 300 282 284 272 263 227 205 198 193 195 175 172 169 156 154 147 142
134 152 204 156 174 327 302 283 262 283 283 327 338 350 355 335 327 32 69 16 357 1 359 354 350 347 357 3 360 348 345 339 325 310 304 307 303 305 310 302 288 257 247 230 200 187 173 180 172 170 166 159 156 157
188 170 180 201 197 227 242 310 299 332 309 340 329 351 351 319 338 64 21 6 358 1 352 348 355 351 350 346 336 336 341 339 324 309 299 293 291 295 299 295 275 259 243 210 200 185 173 178 180 176 176 171 167 166
199 175 190 176 153 201 172 277 168 286 318 306 333 309 340 322 38 33 9 359 351 348 347 356 353 347 352 350 337 336 334 334 327 309 301 308 325 319 306 292 293 257 227 216 197 187 186 184 183 178 180 177 173 170
179 190 181 215 210 147 235 232 265 230 254 260 349 337 344 39 44 32 4 19 337 344 351 356 360 353 346 342 345 347 346 345 339 320 320 13 35 19 355 341 328 316 328 232 214 199 197 192 187 177 172 183 180 177
221 197 171 177 180 189 216 234 219 221 218 187 292 35 70 19 3 359 350 343 340 347 354 3 5 1 360 359 356 1 4 2 1 11 29 20 8 356 2 353 339 330 304 261 240 218 204 195 193 185 176 178 178 179
199 180 148 168 177 194 215 220 238 201 212 268 228 91 134 77 16 336 330 336 352 4 6 5 7 6 10 10 13 14 14 12 9 13 10 355 345 343 346 344 345 340 336 299 243 222 205 194 190 184 165 171 182 175
185 175 176 172 192 207 197 202 262 1 211 39 93 128 125 127 59 21 8 5 9 11 6 7 13 10 10 8 5 9 15 13 13 9 350 344 333 330 338 343 346 349 344 329 222 189 188 176 174 165 154 152 161 164
146 174 173 187 228 208 190 168 145 161 228 201 144 166 143 141 135 52 27 8 7 19 13 9 10 18 12 9 7 2 1 4 3 2 0 356 353 354 354 354 2 6 1 349 266 169 160 161 159 157 157 158 159 153
173 183 175 189 211 194 196 204 162 221 165 159 132 140 144 161 123 75 16 16 23 20 13 9 6 9 9 8 10 10 3 2 5 4 4 7 6 6 7 11 18 30 35 46 44 58 146 137 138 156 161 158 162 157
177 182 188 213 218 214 165 215 160 122 126 119 96 86 94 87 92 97 51 27 25 15 6 354 358 6 7 10 6 4 6 7 6 8 17 23 25 23 23 24 29 38 45 52 61 61 68 83 82 88 94 102 118 122